TimeCST,TemperatureF,Dew PointF,Humidity,Sea Level PressureIn,VisibilityMPH,Wind Direction,Wind SpeedMPH,Gust SpeedMPH,PrecipitationIn,Events,Conditions,WindDirDegrees,DateUTC
12:55 AM,31.3,27.9,87,30.25,10.0,Calm,Calm,-,N/A,,Overcast,0,2012-11-04 05:55:00
1:55 AM,30.9,27.7,88,30.25,10.0,East,3.5,-,N/A,,Mostly Cloudy,90,2012-11-04 06:55:00
1:55 AM,31.8,27.7,85,30.26,10.0,Calm,Calm,-,N/A,,Overcast,0,2012-11-04 07:55:00
2:55 AM,32.4,27.1,81,30.25,10.0,Calm,Calm,-,N/A,,Overcast,0,2012-11-04 08:55:00
3:55 AM,32.0,27.7,84,30.26,10.0,East,3.5,-,N/A,,Overcast,80,2012-11-04 09:55:00
4:55 AM,30.0,26.1,85,30.26,10.0,Calm,Calm,-,N/A,,Overcast,0,2012-11-04 10:55:00
5:55 AM,27.9,25.2,90,30.27,10.0,Calm,Calm,-,N/A,,Overcast,0,2012-11-04 11:55:00
6:55 AM,27.0,24.8,92,30.27,10.0,Calm,Calm,-,N/A,,Overcast,0,2012-11-04 12:55:00
7:55 AM,28.4,26.6,93,30.29,10.0,Calm,Calm,-,N/A,,Mostly Cloudy,0,2012-11-04 13:55:00
8:55 AM,37.4,28.4,70,30.28,10.0,ESE,8.1,-,N/A,,Mostly Cloudy,120,2012-11-04 14:55:00
9:55 AM,37.4,28.4,70,30.27,10.0,SE,5.8,-,N/A,,Mostly Cloudy,130,2012-11-04 15:55:00
10:55 AM,41.0,28.4,61,30.26,10.0,Variable,3.5,-,N/A,,Partly Cloudy,0,2012-11-04 16:55:00
11:55 AM,42.8,28.4,57,30.24,10.0,Calm,Calm,-,N/A,,Partly Cloudy,0,2012-11-04 17:55:00
12:55 PM,46.4,28.4,50,30.22,10.0,East,4.6,-,N/A,,Partly Cloudy,80,2012-11-04 18:55:00
1:55 PM,48.2,28.4,46,30.20,10.0,Calm,Calm,-,N/A,,Partly Cloudy,0,2012-11-04 19:55:00
2:55 PM,44.6,28.4,53,30.19,10.0,West,3.5,-,N/A,,Partly Cloudy,280,2012-11-04 20:55:00
3:55 PM,44.6,28.4,53,30.19,10.0,South,4.6,-,N/A,,Partly Cloudy,180,2012-11-04 21:55:00
4:55 PM,36.7,27.3,69,30.19,10.0,Calm,Calm,-,N/A,,Clear,0,2012-11-04 22:55:00
5:55 PM,30.9,25.9,82,30.21,10.0,Calm,Calm,-,N/A,,Clear,0,2012-11-04 23:55:00
6:55 PM,26.1,22.8,88,30.23,10.0,Calm,Calm,-,N/A,,Clear,0,2012-11-05 00:55:00
7:55 PM,25.9,23.9,92,30.22,10.0,Calm,Calm,-,N/A,,Clear,0,2012-11-05 01:55:00
8:55 PM,27.9,22.8,81,30.23,10.0,ESE,6.9,-,N/A,,Clear,110,2012-11-05 02:55:00
9:55 PM,24.3,21.2,88,30.23,10.0,ESE,3.5,-,N/A,,Clear,120,2012-11-05 03:55:00
10:55 PM,22.6,20.5,91,30.23,10.0,East,3.5,-,N/A,,Clear,100,2012-11-05 04:55:00